TimeCST,TemperatureF,Dew PointF,Humidity,Sea Level PressureIn,VisibilityMPH,Wind Direction,Wind SpeedMPH,Gust SpeedMPH,PrecipitationIn,Events,Conditions,WindDirDegrees,DateUTC
12:52 AM,39.0,28.0,65,29.94,10.0,SW,16.1,-,N/A,,Clear,220,2013-01-19 06:52:00
1:52 AM,37.9,28.0,68,29.95,10.0,SW,13.8,-,N/A,,Clear,220,2013-01-19 07:52:00
2:52 AM,37.9,28.0,68,29.95,10.0,SSW,16.1,-,N/A,,Clear,210,2013-01-19 08:52:00
3:52 AM,37.0,28.0,70,29.94,10.0,SSW,12.7,-,N/A,,Clear,210,2013-01-19 09:52:00
4:52 AM,37.0,28.0,70,29.92,10.0,SSW,13.8,-,N/A,,Clear,210,2013-01-19 10:52:00
5:52 AM,36.0,28.9,76,29.91,10.0,SSW,10.4,-,N/A,,Clear,200,2013-01-19 11:52:00
6:52 AM,36.0,28.9,76,29.90,10.0,SSW,11.5,-,N/A,,Clear,200,2013-01-19 12:52:00
7:52 AM,36.0,28.9,76,29.90,10.0,SSW,11.5,-,N/A,,Clear,210,2013-01-19 13:52:00
8:52 AM,37.0,28.9,73,29.90,10.0,SSW,11.5,-,N/A,,Clear,210,2013-01-19 14:52:00
9:52 AM,39.0,30.0,70,29.89,10.0,SSW,13.8,-,N/A,,Clear,200,2013-01-19 15:52:00
10:52 AM,42.1,30.9,65,29.86,10.0,SW,13.8,20.7,N/A,,Clear,220,2013-01-19 16:52:00
11:52 AM,45.0,34.0,65,29.81,10.0,SW,11.5,-,N/A,,Clear,230,2013-01-19 17:52:00
12:52 PM,44.1,35.1,71,29.78,10.0,SW,13.8,-,N/A,,Partly Cloudy,220,2013-01-19 18:52:00
1:52 PM,45.0,35.1,68,29.77,10.0,SW,15.0,21.9,N/A,,Partly Cloudy,230,2013-01-19 19:52:00
3:52 PM,46.0,37.0,71,29.78,10.0,SW,13.8,23.0,N/A,,Clear,230,2013-01-19 21:52:00
4:52 PM,43.0,36.0,76,29.79,10.0,WSW,13.8,-,N/A,,Clear,240,2013-01-19 22:52:00
5:52 PM,41.0,34.0,76,29.80,10.0,WSW,12.7,-,N/A,,Clear,240,2013-01-19 23:52:00
6:52 PM,39.9,33.1,77,29.81,10.0,WSW,17.3,-,N/A,,Clear,250,2013-01-20 00:52:00
7:52 PM,39.0,32.0,76,29.82,10.0,West,18.4,-,N/A,,Clear,260,2013-01-20 01:52:00
8:52 PM,37.9,30.0,73,29.84,10.0,West,24.2,-,N/A,,Clear,270,2013-01-20 02:52:00
9:52 PM,37.0,26.1,65,29.85,10.0,West,33.4,47.2,N/A,,Clear,280,2013-01-20 03:52:00
10:52 PM,30.0,19.0,64,29.93,10.0,WNW,25.3,36.8,N/A,,Partly Cloudy,290,2013-01-20 04:52:00
11:52 PM,26.1,15.1,63,29.98,10.0,WNW,26.5,33.4,N/A,,Clear,300,2013-01-20 05:52:00